Location: Rowland
(34.5359°N, 79.2929°W)
Time: 14:38:39
(UTC+00:00)

SR - Pass Details

Date: 03 October 2022
Orbit: 577 x 875 km, 66.7° (Epoch: 28 November)

Event Time Altitude Azimuth Distance (km) Brightness Sun altitude
Rises 01:31:22 0° 200° (SSW) 3,374 ? -31.6°
Enters shadow 01:31:56 - 200° (SSW) 3,164 ? -31.7°
Reaches altitude 10° 01:33:47 10° 199° (SSW) 2,470 - -32.1°
Maximum altitude 01:39:33 76° 114° (ESE) 900 - -33.2°
Drops below altitude 10° 01:45:27 10° 30° (NNE) 2,526 - -34.4°
Sets 01:47:56 0° 29° (NNE) 3,456 - -34.8°
